FW8178 Weather Reports


time (UTC)temp
C
wind
direction
speed
KPH
gust
KPH
rain 1hr
cm
rain 24hr
cm
rain mn
cm
humidity
%
barometer
mb
20260510210032 18 227 0.0 4.8 0.00 0.00 0.00 70 1010.8
20260510204512 18 227 1.6 6.4 0.00 0.00 0.00 70 1010.6
20260510203013 19 227 4.8 8.0 0.00 0.00 0.00 68 1010.4
20260510201511 19 190 3.2 9.7 0.00 0.00 0.00 69 1010.1
20260510200011 19 168 6.4 9.7 0.00 0.00 0.00 65 1009.6
20260510194511 20 200 4.8 8.0 0.00 0.00 0.00 62 1009.5
20260510193013 20 49 1.6 6.4 0.00 0.00 0.00 60 1009.4
20260510191512 20 84 1.6 9.7 0.00 0.00 0.00 60 1009.4
20260510190011 21 291 6.4 22.5 0.00 0.00 0.00 58 1009.2
20260510184510 21 195 17.7 33.8 0.00 0.00 0.00 55 1008.8
20260510183010 22 231 16.1 35.4 0.00 0.00 0.00 53 1008.8
20260510181520 22 232 20.9 43.5 0.00 0.00 0.00 52 1008.7
20260510180009 22 207 25.7 45.1 0.00 0.00 0.00 51 1008.8
20260510174508 23 232 22.5 45.1 0.00 0.00 0.00 51 1008.7
20260510173007 23 224 24.1 45.1 0.00 0.00 0.00 49 1008.7
20260510171510 23 190 14.5 38.6 0.00 0.00 0.00 51 1008.6
20260510170006 23 205 25.7 45.1 0.00 0.00 0.00 51 1008.5
20260510164503 23 205 27.4 38.6 0.00 0.00 0.00 50 1008.6
20260510163002 24 210 22.5 37.0 0.00 0.00 0.00 49 1008.6
20260510161600 25 222 25.7 43.5 0.00 0.00 0.00 48 1008.7
20260510160104 25 196 25.7 40.2 0.00 0.00 0.00 47 1008.7
20260510154602 25 186 27.4 43.5 0.00 0.00 0.00 47 1008.8
20260510153105 25 206 25.7 40.2 0.00 0.00 0.00 47 1008.8
20260510151554 25 216 29.0 46.7 0.00 0.00 0.00 46 1009.0
20260510150055 25 231 24.1 40.2 0.00 0.00 0.00 47 1009.2
20260510144552 25 213 20.9 40.2 0.00 0.00 0.00 48 1009.4
20260510143101 25 234 22.5 40.2 0.00 0.00 0.00 47 1009.5
20260510141552 25 221 24.1 35.4 0.00 0.00 0.00 47 1009.5
20260510140046 26 219 19.3 45.1 0.00 0.00 0.00 48 1009.8
20260510134545 25 233 27.4 45.1 0.00 0.00 0.00 48 1010.0
20260510133042 25 234 19.3 51.5 0.00 0.00 0.00 51 1010.0
20260510131539 25 222 24.1 41.8 0.00 0.00 0.00 51 1010.1
20260510130041 25 191 27.4 43.5 0.00 0.03 0.00 51 1010.1
20260510124536 25 236 20.9 38.6 0.00 0.03 0.00 53 1010.5
20260510123036 25 211 20.9 33.8 0.00 0.03 0.00 53 1010.7
20260510121529 23 185 16.1 35.4 0.00 0.03 0.00 68 1011.0
20260510120027 23 160 17.7 32.2 0.00 0.03 0.00 68 1011.3
20260510114529 23 185 22.5 40.2 0.00 0.03 0.00 70 1011.5
20260510113023 23 165 20.9 29.0 0.00 0.03 0.00 66 1011.6
20260510111520 23 209 16.1 30.6 0.00 0.03 0.00 66 1011.9
20260510110019 22 123 16.1 25.7 0.00 0.05 0.00 70 1012.0
20260510104517 22 181 22.5 30.6 0.00 0.05 0.00 64 1012.2
20260510103014 23 188 11.3 17.7 0.00 0.05 0.00 61 1012.1
20260510101515 22 137 6.4 16.1 0.00 0.05 0.00 68 1012.1
20260510100007 21 71 8.0 17.7 0.00 0.30 0.00 69 1012.2
20260510094504 21 121 6.4 12.9 0.00 0.30 0.00 70 1012.3
20260510093102 21 80 6.4 12.9 0.00 0.30 0.00 70 1012.6
20260510091557 20 92 3.2 11.3 0.00 0.30 0.00 72 1012.7
20260510090051 20 98 0.0 11.3 0.00 0.46 0.00 73 1012.5
20260510084546 19 82 3.2 9.7 0.00 0.46 0.00 76 1012.8
20260510083049 18 128 1.6 6.4 0.00 0.46 0.00 77 1012.9
20260510081544 18 178 1.6 6.4 0.00 0.46 0.00 79 1012.6
20260510080037 17 84 1.6 6.4 0.00 0.58 0.00 81 1012.8
20260510074532 17 235 1.6 8.0 0.00 0.58 0.00 83 1013.0
20260510073028 16 300 1.6 8.0 0.00 0.58 0.00 89 1013.1
20260510071535 15 284 3.2 12.9 0.00 0.58 0.00 91 1013.2
20260510070021 15 281 4.8 9.7 0.00 0.79 0.00 93 1013.0
20260510064518 14 321 1.6 4.8 0.00 0.79 0.00 94 1012.9
20260510063020 13 321 3.2 4.8 0.00 0.79 0.00 94 1012.8
20260510061528 13 317 1.6 6.4 0.00 0.79 0.00 94 1012.9
20260510060012 13 201 1.6 4.8 0.00 0.91 0.00 95 1012.7
20260510054510 12 200 1.6 3.2 0.00 0.91 0.00 95 1012.6
20260510053005 12 200 3.2 8.0 0.00 0.91 0.00 95 1012.5
20260510051504 11 318 1.6 3.2 0.00 0.91 0.00 94 1012.4
20260510050002 11 319 0.0 1.6 0.00 0.91 0.00 94 1012.5
20260510044503 12 318 0.0 4.8 0.00 0.91 0.00 94 1012.5
20260510043101 12 311 1.6 4.8 0.00 0.91 0.00 94 1012.5
20260510041559 12 315 0.0 3.2 0.00 0.91 0.00 94 1012.2
20260510040101 12 315 0.0 4.8 0.00 0.91 0.00 94 1012.3
20260510034604 12 28 1.6 3.2 0.00 0.91 0.00 94 1012.4
20260510033113 12 28 0.0 4.8 0.00 0.91 0.00 94 1012.2
20260510031557 12 182 1.6 4.8 0.00 0.91 0.00 94 1012.1
20260510030052 12 182 4.8 6.4 0.00 0.91 0.00 93 1012.1
20260510024557 12 203 4.8 6.4 0.00 0.91 0.00 93 1012.0
20260510023048 12 204 1.6 4.8 0.00 0.91 0.00 93 1012.0
20260510021547 12 204 0.0 1.6 0.00 0.91 0.00 93 1012.0
20260510020049 12 204 0.0 4.8 0.00 0.91 0.91 93 1012.0
20260510014545 12 204 1.6 4.8 0.00 0.91 0.91 93 1011.9
20260510013046 12 204 1.6 4.8 0.00 0.91 0.91 93 1011.7
20260510011553 12 204 1.6 4.8 0.00 0.91 0.91 93 1011.7
20260510010044 12 204 1.6 3.2 0.00 0.91 0.91 92 1011.7
20260510004549 12 204 1.6 3.2 0.00 0.91 0.91 92 1011.9
20260510003101 12 204 0.0 4.8 0.00 0.91 0.91 92 1012.1
20260510001543 12 204 1.6 4.8 0.00 0.91 0.91 91 1012.0
20260510000045 12 200 4.8 8.0 0.00 0.91 0.91 91 1012.2
20260509234557 13 26 0.0 3.2 0.00 0.91 0.91 91 1012.2
20260509233042 13 26 0.0 1.6 0.00 0.91 0.91 90 1012.4
20260509231550 13 26 0.0 9.7 0.00 0.91 0.91 88 1012.4
20260509230037 15 184 1.6 4.8 0.00 0.91 0.91 88 1012.4
20260509224536 15 184 3.2 6.4 0.00 0.91 0.91 86 1012.5
20260509223036 15 184 3.2 4.8 0.00 0.91 0.91 85 1012.5
20260509221535 16 173 0.0 3.2 0.00 0.91 0.91 85 1012.4
20260509220034 16 173 0.0 4.8 0.00 0.91 0.91 85 1012.5
20260509214533 15 173 1.6 4.8 0.00 0.91 0.91 86 1012.4
20260509213033 15 189 4.8 8.0 0.00 0.91 0.91 85 1012.3
20260509211538 16 196 3.2 6.4 0.00 0.91 0.91 82 1012.2